OPS 3165 (DSP 5) 1 08482U 75118A 21054.66816712 -.00000344 00000-0 00000-0 0 9995 2 08482 7.2036 292.0191 0030322 328.8941 238.4815 1.00485287 6968 TITAN 3C TRANSTAGE R/B 1 08516U 75118C 21054.19440223 -.00000088 00000-0 00000-0 0 9996 2 08516 7.1789 292.1438 0013657 146.3820 213.7218 1.00556743 6279